Location: Blairvadach
(56.2780°N, 6.9720°W)
Time: 13:31:38
(UTC+01:00)

Envisat - Visible Passes

Search period start: 20 April 2019 00:00
Search period end: 30 April 2019 00:00
Orbit: 764 x 766 km, 98.2° (Epoch: 19 April)

Date Brightness Start Highest point End Pass type
(mag) Time Alt. Az. Time Alt. Az. Time Alt. Az.
20 Apr 6.2 21:50:05 10° W 21:51:42 11° W 21:53:20 10° WNW visible
23 Apr 6.0 21:37:42 10° WSW 21:40:17 14° W 21:42:53 10° NW visible
28 Apr 6.3 21:53:54 10° W 21:54:52 10° W 21:55:50 10° WNW visible
